| time (UTC) | temp F | wind direction | speed MPH | gust MPH | rain 1hr in | rain 24hr in | rain mn in | humidity % | barometer mb |
| 20260505222315 | 61 | 135 | 4.0 | 6.0 | 0.00 | 0.12 | 0.12 | 98 | 1008.9 |
| 20260505221813 | 61 | 151 | 4.0 | 6.0 | 0.00 | 0.12 | 0.12 | 98 | 1009.0 |
| 20260505221309 | 61 | 105 | 3.0 | 3.0 | 0.00 | 0.12 | 0.12 | 98 | 1009.2 |
| 20260505220806 | 61 | 185 | 6.0 | 7.0 | 0.00 | 0.12 | 0.12 | 98 | 1009.2 |
| 20260505220303 | 61 | 145 | 3.0 | 3.0 | 0.00 | 0.12 | 0.12 | 98 | 1009.5 |
| 20260505215801 | 61 | 173 | 4.0 | 5.0 | 0.05 | 0.12 | 0.12 | 98 | 1009.4 |
| 20260505215259 | 61 | 187 | 6.0 | 7.0 | 0.05 | 0.12 | 0.12 | 98 | 1009.3 |
| 20260505214756 | 61 | 333 | 3.0 | 6.0 | 0.00 | 0.11 | 0.11 | 98 | 1009.4 |
| 20260505214253 | 61 | 144 | 5.0 | 6.0 | 0.07 | 0.11 | 0.11 | 98 | 1009.7 |
| 20260505213750 | 61 | 205 | 4.0 | 6.0 | 0.07 | 0.11 | 0.11 | 98 | 1009.7 |
| 20260505213248 | 61 | 202 | 5.0 | 6.0 | 0.00 | 0.10 | 0.10 | 98 | 1009.6 |
| 20260505212743 | 61 | 215 | 4.0 | 5.0 | 0.05 | 0.10 | 0.10 | 98 | 1009.6 |
| 20260505212241 | 61 | 216 | 3.0 | 5.0 | 0.05 | 0.10 | 0.10 | 98 | 1009.6 |
| 20260505211738 | 61 | 148 | 6.0 | 7.0 | 0.07 | 0.09 | 0.09 | 97 | 1009.7 |
| 20260505211235 | 61 | 69 | 4.0 | 5.0 | 0.07 | 0.09 | 0.09 | 97 | 1009.8 |
| 20260505210731 | 61 | 322 | 1.0 | 2.0 | 0.07 | 0.09 | 0.09 | 97 | 1009.8 |
| 20260505210228 | 61 | 243 | 2.0 | 2.0 | 0.05 | 0.08 | 0.08 | 97 | 1009.6 |
| 20260505205726 | 61 | 348 | 1.0 | 1.0 | 0.12 | 0.08 | 0.08 | 97 | 1009.7 |
| 20260505205224 | 61 | 275 | 4.0 | 5.0 | 0.14 | 0.07 | 0.07 | 96 | 1009.8 |
| 20260505204720 | 62 | 172 | 3.0 | 5.0 | 0.07 | 0.06 | 0.06 | 96 | 1009.8 |
| 20260505204218 | 62 | 342 | 1.0 | 1.0 | 0.05 | 0.05 | 0.05 | 95 | 1010.0 |
| 20260505203715 | 62 | 316 | 1.0 | 1.0 | 0.17 | 0.05 | 0.05 | 95 | 1009.9 |
| 20260505203212 | 62 | 319 | 2.0 | 2.0 | 0.19 | 0.04 | 0.04 | 94 | 1009.8 |
| 20260505202708 | 62 | 288 | 1.0 | 1.0 | 0.12 | 0.02 | 0.02 | 93 | 1009.9 |
| 20260505202204 | 62 | 322 | 2.0 | 2.0 | 0.05 | 0.01 | 0.01 | 92 | 1009.6 |
| 20260505201700 | 62 | 349 | 2.0 | 2.0 | 0.05 | 0.01 | 0.01 | 91 | 1009.6 |
| 20260505201159 | 63 | 295 | 2.0 | 2.0 | 0.00 | 0.00 | 0.00 | 89 | 1009.8 |
| 20260505200656 | 64 | 337 | 2.0 | 2.0 | 0.00 | 0.00 | 0.00 | 87 | 1009.6 |
| 20260505200153 | 65 | 334 | 3.0 | 5.0 | 0.00 | 0.00 | 0.00 | 84 | 1009.7 |
| 20260505195649 | 68 | 209 | 7.0 | 9.0 | 0.00 | 0.00 | 0.00 | 76 | 1009.8 |
| 20260505195146 | 69 | 276 | 5.0 | 6.0 | 0.00 | 0.00 | 0.00 | 69 | 1009.4 |
| 20260505194643 | 69 | 277 | 4.0 | 8.0 | 0.00 | 0.00 | 0.00 | 69 | 1009.1 |
| 20260505194139 | 69 | 210 | 6.0 | 7.0 | 0.00 | 0.00 | 0.00 | 68 | 1009.1 |
| 20260505193636 | 70 | 206 | 5.0 | 7.0 | 0.00 | 0.00 | 0.00 | 68 | 1009.1 |
| 20260505193133 | 70 | 210 | 6.0 | 7.0 | 0.00 | 0.00 | 0.00 | 68 | 1009.4 |
| 20260505192632 | 70 | 177 | 9.0 | 10.0 | 0.00 | 0.00 | 0.00 | 67 | 1009.5 |
| 20260505192129 | 70 | 206 | 7.0 | 8.0 | 0.00 | 0.00 | 0.00 | 68 | 1009.5 |
| 20260505191627 | 70 | 144 | 2.0 | 3.0 | 0.00 | 0.00 | 0.00 | 68 | 1009.7 |
| 20260505191125 | 70 | 195 | 8.0 | 9.0 | 0.00 | 0.00 | 0.00 | 67 | 1009.4 |
| 20260505190621 | 70 | 204 | 7.0 | 9.0 | 0.00 | 0.00 | 0.00 | 68 | 1009.7 |
| 20260505190115 | 70 | 223 | 7.0 | 8.0 | 0.00 | 0.00 | 0.00 | 67 | 1009.5 |
| 20260505185613 | 70 | 179 | 6.0 | 8.0 | 0.00 | 0.00 | 0.00 | 69 | 1009.5 |
| 20260505185109 | 69 | 199 | 5.0 | 7.0 | 0.00 | 0.00 | 0.00 | 68 | 1009.7 |
| 20260505184605 | 69 | 240 | 9.0 | 11.0 | 0.00 | 0.00 | 0.00 | 69 | 1009.8 |
| 20260505184102 | 69 | 216 | 10.0 | 14.0 | 0.00 | 0.00 | 0.00 | 68 | 1009.8 |
| 20260505183559 | 69 | 173 | 5.0 | 7.0 | 0.00 | 0.00 | 0.00 | 69 | 1009.8 |
| 20260505183057 | 69 | 224 | 9.0 | 10.0 | 0.00 | 0.00 | 0.00 | 68 | 1010.1 |
| 20260505182553 | 69 | 238 | 11.0 | 13.0 | 0.00 | 0.00 | 0.00 | 68 | 1010.2 |
| 20260505182050 | 69 | 229 | 7.0 | 10.0 | 0.00 | 0.00 | 0.00 | 68 | 1010.1 |
| 20260505181546 | 69 | 12 | 5.0 | 7.0 | 0.00 | 0.00 | 0.00 | 68 | 1010.2 |
| 20260505181044 | 69 | 172 | 9.0 | 14.0 | 0.00 | 0.00 | 0.00 | 67 | 1010.6 |
| 20260505180539 | 69 | 224 | 9.0 | 11.0 | 0.00 | 0.00 | 0.00 | 67 | 1010.4 |
| 20260505180038 | 69 | 192 | 11.0 | 13.0 | 0.00 | 0.00 | 0.00 | 68 | 1010.5 |
| 20260505175537 | 69 | 226 | 11.0 | 13.0 | 0.00 | 0.00 | 0.00 | 68 | 1010.4 |
| 20260505175035 | 69 | 232 | 6.0 | 8.0 | 0.00 | 0.00 | 0.00 | 67 | 1010.4 |
| 20260505174532 | 69 | 181 | 9.0 | 11.0 | 0.00 | 0.00 | 0.00 | 67 | 1010.4 |
| 20260505174027 | 69 | 199 | 7.0 | 9.0 | 0.00 | 0.00 | 0.00 | 67 | 1010.6 |
| 20260505173525 | 69 | 208 | 9.0 | 10.0 | 0.00 | 0.00 | 0.00 | 67 | 1010.3 |
| 20260505173021 | 69 | 142 | 5.0 | 6.0 | 0.00 | 0.00 | 0.00 | 67 | 1010.3 |
| 20260505172519 | 69 | 212 | 9.0 | 11.0 | 0.00 | 0.00 | 0.00 | 66 | 1010.6 |
| 20260505172015 | 69 | 215 | 7.0 | 9.0 | 0.00 | 0.00 | 0.00 | 68 | 1010.6 |
| 20260505171510 | 69 | 217 | 8.0 | 10.0 | 0.00 | 0.00 | 0.00 | 67 | 1010.5 |
| 20260505171008 | 69 | 296 | 7.0 | 10.0 | 0.00 | 0.00 | 0.00 | 66 | 1010.4 |
| 20260505170504 | 69 | 200 | 5.0 | 5.0 | 0.00 | 0.00 | 0.00 | 67 | 1010.4 |
| 20260505170000 | 69 | 248 | 3.0 | 5.0 | 0.00 | 0.00 | 0.00 | 68 | 1010.5 |
| 20260505165456 | 69 | 172 | 4.0 | 5.0 | 0.00 | 0.00 | 0.00 | 66 | 1010.8 |
| 20260505164951 | 69 | 161 | 4.0 | 6.0 | 0.00 | 0.00 | 0.00 | 67 | 1010.6 |
| 20260505164448 | 69 | 232 | 5.0 | 7.0 | 0.00 | 0.00 | 0.00 | 67 | 1010.8 |
| 20260505163946 | 68 | 219 | 7.0 | 8.0 | 0.00 | 0.00 | 0.00 | 67 | 1010.8 |
| 20260505163444 | 68 | 226 | 8.0 | 9.0 | 0.00 | 0.00 | 0.00 | 66 | 1010.6 |
| 20260505162944 | 68 | 196 | 5.0 | 7.0 | 0.00 | 0.00 | 0.00 | 66 | 1010.8 |
| 20260505162439 | 68 | 186 | 6.0 | 14.0 | 0.00 | 0.00 | 0.00 | 67 | 1010.6 |
| 20260505161936 | 68 | 274 | 3.0 | 5.0 | 0.00 | 0.00 | 0.00 | 67 | 1010.8 |
| 20260505161432 | 68 | 235 | 3.0 | 3.0 | 0.00 | 0.00 | 0.00 | 67 | 1010.8 |
| 20260505160930 | 68 | 199 | 8.0 | 9.0 | 0.00 | 0.00 | 0.00 | 66 | 1010.6 |
| 20260505160428 | 68 | 242 | 2.0 | 5.0 | 0.00 | 0.00 | 0.00 | 67 | 1010.6 |
| 20260505152905 | 67 | 187 | 7.0 | 9.0 | 0.00 | 0.00 | 0.00 | 67 | 1010.6 |
| 20260505152402 | 67 | 217 | 4.0 | 6.0 | 0.00 | 0.00 | 0.00 | 68 | 1010.5 |
| 20260505151901 | 67 | 192 | 5.0 | 7.0 | 0.00 | 0.00 | 0.00 | 68 | 1010.5 |
| 20260505151358 | 66 | 200 | 7.0 | 9.0 | 0.00 | 0.00 | 0.00 | 68 | 1010.5 |
| 20260505150855 | 67 | 202 | 7.0 | 9.0 | 0.00 | 0.00 | 0.00 | 69 | 1010.3 |
| 20260505150353 | 66 | 226 | 3.0 | 3.0 | 0.00 | 0.00 | 0.00 | 70 | 1010.6 |
| 20260505140323 | 65 | 156 | 5.0 | 6.0 | 0.00 | 0.00 | 0.00 | 74 | 1009.8 |
| 20260505130246 | 62 | 181 | 3.0 | 3.0 | 0.00 | 0.00 | 0.00 | 81 | 1010.6 |
| 20260505124736 | 62 | 20 | 2.0 | 2.0 | 0.00 | 0.00 | 0.00 | 82 | 1010.5 |
| 20260505124233 | 62 | 232 | 1.0 | 2.0 | 0.00 | 0.00 | 0.00 | 83 | 1010.6 |
| 20260505123729 | 62 | 250 | 5.0 | 6.0 | 0.00 | 0.00 | 0.00 | 83 | 1010.4 |
| 20260505123226 | 61 | 219 | 3.0 | 3.0 | 0.00 | 0.00 | 0.00 | 85 | 1010.5 |
| 20260505122722 | 61 | 339 | 0.0 | 1.0 | 0.00 | 0.00 | 0.00 | 86 | 1010.3 |
| 20260505122220 | 60 | 198 | 4.0 | 5.0 | 0.00 | 0.00 | 0.00 | 87 | 1010.1 |
| 20260505121716 | 60 | 202 | 4.0 | 5.0 | 0.00 | 0.00 | 0.00 | 87 | 1010.3 |
| 20260505121213 | 60 | 211 | 5.0 | 6.0 | 0.00 | 0.00 | 0.00 | 87 | 1010.3 |
| 20260505120709 | 60 | 238 | 4.0 | 5.0 | 0.00 | 0.00 | 0.00 | 87 | 1010.7 |
| 20260505120205 | 60 | 214 | 3.0 | 3.0 | 0.00 | 0.00 | 0.00 | 87 | 1010.7 |
| 20260505115659 | 60 | 273 | 1.0 | 2.0 | 0.00 | 0.00 | 0.00 | 87 | 1010.7 |
| 20260505115157 | 60 | 143 | 4.0 | 5.0 | 0.00 | 0.00 | 0.00 | 88 | 1010.7 |
| 20260505114654 | 59 | 203 | 4.0 | 5.0 | 0.00 | 0.00 | 0.00 | 88 | 1010.6 |
| 20260505114150 | 59 | 94 | 3.0 | 3.0 | 0.00 | 0.00 | 0.00 | 88 | 1010.8 |
| 20260505113647 | 59 | 193 | 4.0 | 5.0 | 0.00 | 0.00 | 0.00 | 88 | 1010.6 |
| 20260505113143 | 59 | 230 | 3.0 | 3.0 | 0.00 | 0.00 | 0.00 | 88 | 1010.8 |
| 20260505112640 | 59 | 185 | 4.0 | 5.0 | 0.00 | 0.00 | 0.00 | 89 | 1010.5 |
| 20260505112138 | 59 | 226 | 3.0 | 3.0 | 0.00 | 0.00 | 0.00 | 89 | 1010.5 |
| 20260505111637 | 59 | 256 | 2.0 | 2.0 | 0.00 | 0.00 | 0.00 | 88 | 1010.7 |
| 20260505111133 | 59 | 242 | 3.0 | 3.0 | 0.00 | 0.00 | 0.00 | 88 | 1010.4 |
| 20260505110629 | 59 | 97 | 2.0 | 2.0 | 0.00 | 0.00 | 0.00 | 88 | 1010.4 |
| 20260505110127 | 59 | 349 | 0.0 | 0.0 | 0.00 | 0.00 | 0.00 | 87 | 1010.5 |
| 20260505102102 | 62 | 288 | 1.0 | 2.0 | 0.00 | 0.00 | 0.00 | 74 | 1010.8 |
| 20260505101601 | 63 | 327 | 3.0 | 3.0 | 0.00 | 0.00 | 0.00 | 72 | 1010.8 |
| 20260505101057 | 63 | 243 | 6.0 | 7.0 | 0.00 | 0.00 | 0.00 | 70 | 1010.4 |
| 20260505100554 | 64 | 281 | 3.0 | 5.0 | 0.00 | 0.00 | 0.00 | 68 | 1010.5 |
| 20260505100050 | 64 | 52 | 5.0 | 6.0 | 0.00 | 0.00 | 0.00 | 67 | 1010.3 |
| 20260505095547 | 64 | 276 | 2.0 | 3.0 | 0.00 | 0.00 | 0.00 | 66 | 1010.0 |
| 20260505095043 | 64 | 268 | 6.0 | 9.0 | 0.00 | 0.00 | 0.00 | 66 | 1010.1 |
| 20260505094540 | 64 | 338 | 1.0 | 1.0 | 0.00 | 0.00 | 0.00 | 66 | 1010.1 |
| 20260505094036 | 64 | 39 | 3.0 | 5.0 | 0.00 | 0.00 | 0.00 | 67 | 1009.9 |
| 20260505093533 | 64 | 342 | 0.0 | 0.0 | 0.00 | 0.00 | 0.00 | 66 | 1009.8 |
| 20260505093030 | 64 | 215 | 5.0 | 7.0 | 0.00 | 0.00 | 0.00 | 66 | 1009.6 |
| 20260505092527 | 64 | 6 | 0.0 | 1.0 | 0.00 | 0.00 | 0.00 | 66 | 1009.5 |
| 20260505092026 | 64 | 359 | 1.0 | 1.0 | 0.00 | 0.00 | 0.00 | 66 | 1009.5 |
| 20260505091522 | 64 | 336 | 0.0 | 1.0 | 0.00 | 0.00 | 0.00 | 66 | 1009.8 |
| 20260505091020 | 64 | 338 | 2.0 | 2.0 | 0.00 | 0.00 | 0.00 | 66 | 1009.4 |
| 20260505090518 | 64 | 356 | 0.0 | 1.0 | 0.00 | 0.00 | 0.00 | 67 | 1009.2 |
| 20260505090016 | 63 | 57 | 3.0 | 3.0 | 0.00 | 0.00 | 0.00 | 66 | 1009.3 |
| 20260505085514 | 64 | 173 | 3.0 | 3.0 | 0.00 | 0.00 | 0.00 | 66 | 1009.2 |
| 20260505085011 | 64 | 197 | 3.0 | 5.0 | 0.00 | 0.00 | 0.00 | 66 | 1009.1 |
| 20260505084509 | 64 | 0 | 0.0 | 1.0 | 0.00 | 0.00 | 0.00 | 66 | 1009.0 |
| 20260505084007 | 64 | 191 | 3.0 | 5.0 | 0.00 | 0.00 | 0.00 | 66 | 1009.1 |
| 20260505083504 | 64 | 18 | 1.0 | 1.0 | 0.00 | 0.00 | 0.00 | 65 | 1008.9 |
| 20260505083000 | 64 | 43 | 2.0 | 2.0 | 0.00 | 0.00 | 0.00 | 65 | 1008.8 |
| 20260505082456 | 64 | 29 | 1.0 | 1.0 | 0.00 | 0.00 | 0.00 | 66 | 1008.8 |
| 20260505081953 | 64 | 189 | 5.0 | 6.0 | 0.00 | 0.00 | 0.00 | 65 | 1008.7 |
| 20260505081450 | 64 | 186 | 4.0 | 5.0 | 0.00 | 0.00 | 0.00 | 65 | 1008.4 |
| 20260505080946 | 64 | 54 | 2.0 | 2.0 | 0.00 | 0.00 | 0.00 | 65 | 1008.4 |
| 20260505080442 | 64 | 331 | 3.0 | 5.0 | 0.00 | 0.00 | 0.00 | 65 | 1008.6 |
| 20260505075938 | 64 | 13 | 1.0 | 1.0 | 0.00 | 0.00 | 0.00 | 66 | 1008.5 |
| 20260505075435 | 64 | 352 | 1.0 | 2.0 | 0.00 | 0.00 | 0.00 | 65 | 1008.4 |
| 20260505074933 | 64 | 234 | 3.0 | 3.0 | 0.00 | 0.00 | 0.00 | 65 | 1008.4 |
| 20260505074430 | 64 | 162 | 3.0 | 3.0 | 0.00 | 0.00 | 0.00 | 64 | 1008.2 |
| 20260505073927 | 64 | 260 | 6.0 | 8.0 | 0.00 | 0.00 | 0.00 | 65 | 1008.4 |
| 20260505073425 | 64 | 17 | 1.0 | 2.0 | 0.00 | 0.00 | 0.00 | 64 | 1008.0 |
| 20260505072921 | 64 | 137 | 5.0 | 7.0 | 0.00 | 0.00 | 0.00 | 65 | 1008.0 |
| 20260505072417 | 65 | 202 | 4.0 | 5.0 | 0.00 | 0.00 | 0.00 | 64 | 1007.9 |
| 20260505071914 | 64 | 155 | 8.0 | 10.0 | 0.00 | 0.00 | 0.00 | 64 | 1008.1 |
| 20260505071410 | 65 | 262 | 5.0 | 7.0 | 0.00 | 0.00 | 0.00 | 64 | 1008.2 |
| 20260505070908 | 65 | 248 | 2.0 | 3.0 | 0.00 | 0.00 | 0.00 | 64 | 1008.0 |
| 20260505070404 | 65 | 178 | 9.0 | 11.0 | 0.00 | 0.00 | 0.00 | 64 | 1008.1 |
| 20260505065900 | 65 | 190 | 4.0 | 5.0 | 0.00 | 0.00 | 0.00 | 64 | 1008.2 |
| 20260505065357 | 65 | 153 | 5.0 | 7.0 | 0.00 | 0.00 | 0.00 | 64 | 1008.1 |
| 20260505064854 | 65 | 194 | 4.0 | 5.0 | 0.00 | 0.00 | 0.00 | 64 | 1008.2 |
| 20260505064351 | 65 | 194 | 8.0 | 9.0 | 0.00 | 0.00 | 0.00 | 64 | 1008.4 |
| 20260505063850 | 64 | 222 | 3.0 | 5.0 | 0.00 | 0.00 | 0.00 | 64 | 1008.2 |
| 20260505063345 | 64 | 258 | 5.0 | 7.0 | 0.00 | 0.00 | 0.00 | 65 | 1008.2 |
| 20260505062842 | 64 | 193 | 3.0 | 5.0 | 0.00 | 0.00 | 0.00 | 66 | 1008.4 |
| 20260505062339 | 65 | 204 | 5.0 | 8.0 | 0.00 | 0.00 | 0.00 | 66 | 1008.1 |
| 20260505061836 | 64 | 239 | 6.0 | 7.0 | 0.00 | 0.00 | 0.00 | 66 | 1008.1 |
| 20260505061334 | 64 | 234 | 5.0 | 6.0 | 0.00 | 0.00 | 0.00 | 66 | 1008.2 |
| 20260505060831 | 64 | 252 | 3.0 | 6.0 | 0.00 | 0.00 | 0.00 | 67 | 1008.2 |
| 20260505060328 | 64 | 214 | 4.0 | 5.0 | 0.00 | 0.00 | 0.00 | 66 | 1008.0 |
| 20260505055824 | 64 | 235 | 5.0 | 7.0 | 0.00 | 0.00 | 0.00 | 67 | 1007.8 |
| 20260505055320 | 64 | 201 | 4.0 | 6.0 | 0.00 | 0.00 | 0.00 | 66 | 1007.9 |
| 20260505054817 | 64 | 212 | 3.0 | 3.0 | 0.00 | 0.00 | 0.00 | 68 | 1007.9 |
| 20260505054315 | 64 | 245 | 2.0 | 3.0 | 0.00 | 0.00 | 0.00 | 67 | 1007.9 |
| 20260505053813 | 64 | 172 | 5.0 | 7.0 | 0.00 | 0.00 | 0.00 | 67 | 1007.8 |
| 20260505053309 | 64 | 142 | 5.0 | 7.0 | 0.00 | 0.00 | 0.00 | 67 | 1007.9 |
| 20260505052806 | 65 | 341 | 0.0 | 1.0 | 0.00 | 0.00 | 0.00 | 66 | 1007.8 |
| 20260505052304 | 65 | 194 | 3.0 | 3.0 | 0.00 | 0.00 | 0.00 | 67 | 1008.0 |
| 20260505051800 | 65 | 257 | 5.0 | 6.0 | 0.00 | 0.00 | 0.00 | 67 | 1007.9 |
| 20260505051258 | 65 | 226 | 3.0 | 5.0 | 0.00 | 0.00 | 0.00 | 67 | 1007.9 |
| 20260505050755 | 65 | 150 | 3.0 | 3.0 | 0.00 | 0.00 | 0.00 | 67 | 1008.1 |
| 20260505050254 | 64 | 204 | 5.0 | 6.0 | 0.00 | 0.00 | 0.00 | 68 | 1008.2 |
| 20260505041723 | 66 | 96 | 2.0 | 2.0 | 0.00 | 0.00 | 0.00 | 66 | 1008.5 |
| 20260505041220 | 66 | 211 | 4.0 | 6.0 | 0.00 | 0.00 | 0.00 | 67 | 1008.4 |
| 20260505040718 | 66 | 190 | 4.0 | 5.0 | 0.00 | 0.00 | 0.00 | 67 | 1008.2 |
| 20260505040215 | 66 | 249 | 3.0 | 3.0 | 0.00 | 0.00 | 0.00 | 67 | 1008.4 |
| 20260505035712 | 66 | 224 | 3.0 | 5.0 | 0.00 | 0.00 | 0.00 | 67 | 1008.1 |
| 20260505035208 | 66 | 229 | 3.0 | 3.0 | 0.00 | 0.00 | 0.00 | 68 | 1008.4 |
| 20260505034705 | 66 | 181 | 4.0 | 5.0 | 0.00 | 0.00 | 0.00 | 68 | 1008.2 |
| 20260505034202 | 66 | 210 | 4.0 | 5.0 | 0.00 | 0.00 | 0.00 | 68 | 1008.1 |
| 20260505033658 | 66 | 75 | 3.0 | 3.0 | 0.00 | 0.00 | 0.00 | 67 | 1008.6 |
| 20260505033156 | 66 | 207 | 4.0 | 6.0 | 0.00 | 0.00 | 0.00 | 68 | 1008.1 |
| 20260505032654 | 66 | 198 | 4.0 | 5.0 | 0.00 | 0.00 | 0.00 | 68 | 1008.4 |
| 20260505032155 | 66 | 58 | 2.0 | 2.0 | 0.00 | 0.00 | 0.00 | 68 | 1008.2 |
| 20260505031652 | 66 | 147 | 3.0 | 3.0 | 0.00 | 0.00 | 0.00 | 68 | 1008.0 |
| 20260505031148 | 66 | 146 | 3.0 | 3.0 | 0.00 | 0.00 | 0.00 | 67 | 1008.0 |
| 20260505030646 | 66 | 46 | 3.0 | 3.0 | 0.00 | 0.00 | 0.00 | 67 | 1007.9 |
| 20260505030141 | 66 | 219 | 4.0 | 5.0 | 0.00 | 0.00 | 0.00 | 66 | 1008.2 |
| 20260505025638 | 67 | 236 | 4.0 | 5.0 | 0.00 | 0.00 | 0.00 | 66 | 1007.9 |
| 20260505025136 | 67 | 152 | 4.0 | 5.0 | 0.00 | 0.00 | 0.00 | 66 | 1008.2 |
| 20260505024633 | 67 | 189 | 7.0 | 8.0 | 0.00 | 0.00 | 0.00 | 65 | 1007.8 |
| 20260505024130 | 67 | 259 | 3.0 | 5.0 | 0.00 | 0.00 | 0.00 | 65 | 1007.9 |
| 20260505023628 | 67 | 273 | 4.0 | 5.0 | 0.00 | 0.00 | 0.00 | 65 | 1007.9 |
| 20260505023125 | 67 | 333 | 1.0 | 1.0 | 0.00 | 0.00 | 0.00 | 65 | 1007.8 |
| 20260505022623 | 67 | 22 | 1.0 | 2.0 | 0.00 | 0.00 | 0.00 | 65 | 1007.7 |
| 20260505022119 | 67 | 8 | 0.0 | 0.0 | 0.00 | 0.00 | 0.00 | 65 | 1007.5 |
| 20260505021616 | 67 | 18 | 1.0 | 1.0 | 0.00 | 0.00 | 0.00 | 64 | 1007.5 |
| 20260505021113 | 67 | 25 | 1.0 | 1.0 | 0.00 | 0.00 | 0.00 | 65 | 1007.4 |
| 20260505020608 | 67 | 167 | 4.0 | 5.0 | 0.00 | 0.00 | 0.00 | 64 | 1007.4 |
| 20260505020104 | 67 | 138 | 4.0 | 5.0 | 0.00 | 0.00 | 0.00 | 64 | 1007.1 |
| 20260505015602 | 67 | 175 | 3.0 | 5.0 | 0.00 | 0.00 | 0.00 | 64 | 1007.2 |
| 20260505015058 | 67 | 8 | 2.0 | 3.0 | 0.00 | 0.00 | 0.00 | 64 | 1007.0 |
| 20260505014555 | 67 | 89 | 3.0 | 5.0 | 0.00 | 0.00 | 0.00 | 63 | 1007.2 |
| 20260505014052 | 68 | 143 | 2.0 | 2.0 | 0.00 | 0.00 | 0.00 | 63 | 1007.0 |
| 20260505013549 | 68 | 14 | 1.0 | 1.0 | 0.00 | 0.00 | 0.00 | 64 | 1006.9 |
| 20260505013047 | 68 | 106 | 2.0 | 2.0 | 0.00 | 0.00 | 0.00 | 62 | 1007.0 |
| 20260505012545 | 69 | 12 | 2.0 | 2.0 | 0.00 | 0.00 | 0.00 | 61 | 1006.9 |
| 20260505012042 | 70 | 226 | 3.0 | 5.0 | 0.00 | 0.00 | 0.00 | 59 | 1007.0 |
| 20260505011537 | 70 | 102 | 1.0 | 2.0 | 0.00 | 0.00 | 0.00 | 59 | 1007.0 |
| 20260505011035 | 70 | 178 | 4.0 | 5.0 | 0.00 | 0.00 | 0.00 | 58 | 1006.8 |
| 20260505010530 | 70 | 88 | 3.0 | 5.0 | 0.00 | 0.00 | 0.00 | 59 | 1007.0 |
| 20260505010027 | 70 | 135 | 3.0 | 3.0 | 0.00 | 0.00 | 0.00 | 59 | 1006.7 |
| 20260505005523 | 70 | 191 | 2.0 | 2.0 | 0.00 | 0.00 | 0.00 | 58 | 1006.8 |
| 20260505005021 | 71 | 123 | 2.0 | 2.0 | 0.00 | 0.00 | 0.00 | 58 | 1006.6 |
| 20260505004517 | 71 | 186 | 3.0 | 3.0 | 0.00 | 0.00 | 0.00 | 57 | 1006.8 |
| 20260505004014 | 71 | 154 | 4.0 | 5.0 | 0.00 | 0.00 | 0.00 | 58 | 1006.8 |
| 20260505003511 | 71 | 169 | 4.0 | 5.0 | 0.00 | 0.00 | 0.00 | 57 | 1006.9 |
| 20260505003009 | 71 | 199 | 3.0 | 3.0 | 0.00 | 0.00 | 0.00 | 57 | 1007.0 |
| 20260505002503 | 71 | 165 | 4.0 | 5.0 | 0.00 | 0.00 | 0.00 | 56 | 1007.2 |
| 20260505002002 | 72 | 198 | 4.0 | 6.0 | 0.00 | 0.00 | 0.00 | 56 | 1007.0 |
| 20260505001459 | 72 | 290 | 3.0 | 5.0 | 0.00 | 0.00 | 0.00 | 56 | 1007.0 |
| 20260505000956 | 72 | 228 | 4.0 | 5.0 | 0.00 | 0.00 | 0.00 | 55 | 1007.3 |
| 20260505000454 | 73 | 146 | 3.0 | 5.0 | 0.00 | 0.00 | 0.00 | 54 | 1007.1 |
| 20260504235951 | 73 | 207 | 3.0 | 5.0 | 0.00 | 0.00 | 0.00 | 54 | 1007.0 |
| 20260504235448 | 73 | 139 | 5.0 | 7.0 | 0.00 | 0.00 | 0.00 | 54 | 1007.2 |
| 20260504234944 | 73 | 210 | 4.0 | 5.0 | 0.00 | 0.00 | 0.00 | 53 | 1007.2 |
| 20260504234442 | 73 | 238 | 5.0 | 5.0 | 0.00 | 0.00 | 0.00 | 52 | 1007.3 |
| 20260504233938 | 73 | 213 | 6.0 | 8.0 | 0.00 | 0.00 | 0.00 | 52 | 1007.6 |
| 20260504233434 | 73 | 211 | 2.0 | 2.0 | 0.00 | 0.00 | 0.00 | 52 | 1007.7 |
| 20260504232931 | 74 | 251 | 1.0 | 2.0 | 0.00 | 0.00 | 0.00 | 52 | 1007.5 |
| 20260504232428 | 74 | 353 | 1.0 | 2.0 | 0.00 | 0.00 | 0.00 | 51 | 1007.5 |
| 20260504231925 | 74 | 345 | 2.0 | 2.0 | 0.00 | 0.00 | 0.00 | 51 | 1007.6 |
| 20260504231421 | 75 | 120 | 2.0 | 3.0 | 0.00 | 0.00 | 0.00 | 52 | 1007.6 |
| 20260504230918 | 75 | 185 | 5.0 | 6.0 | 0.00 | 0.00 | 0.00 | 51 | 1007.7 |
| 20260504230415 | 75 | 227 | 9.0 | 10.0 | 0.00 | 0.00 | 0.00 | 50 | 1007.7 |
| 20260504225914 | 75 | 213 | 5.0 | 6.0 | 0.00 | 0.00 | 0.00 | 51 | 1007.7 |
| 20260504225410 | 76 | 117 | 5.0 | 6.0 | 0.00 | 0.00 | 0.00 | 50 | 1007.9 |
| 20260504224908 | 75 | 228 | 5.0 | 6.0 | 0.00 | 0.00 | 0.00 | 49 | 1007.7 |
| 20260504224404 | 75 | 223 | 8.0 | 11.0 | 0.00 | 0.00 | 0.00 | 47 | 1007.8 |
| 20260504223901 | 75 | 208 | 4.0 | 5.0 | 0.00 | 0.00 | 0.00 | 48 | 1007.8 |
| 20260504223356 | 76 | 165 | 8.0 | 9.0 | 0.00 | 0.00 | 0.00 | 46 | 1007.9 |
| 20260504222853 | 76 | 315 | 3.0 | 5.0 | 0.00 | 0.00 | 0.00 | 47 | 1007.8 |